This demonstration page uses our WeatherBlox Daily Observations layout. Learn more.

Left ArrowRight Arrow

34.74481, -87.66753

Hourly Observations for July 17, 2019

Temp ( °F °C ) Dew Point ( °F °C ) Humidity (%) Winds ( mph kmh ) Pressure ( in mb ) Visibility ( mi km ) Precip ( " mm )
12:53 am 00:53 Mostly Cloudy 75 23.9 72 22.2 90 90 S 3 6 30.04 1017 10 16 0.00 0.00
1:53 am 01:53 Cloudy 75 23.9 72 22.2 90 90 Calm 30.02 1017 10 16 0.00 0.00
2:53 am 02:53 Cloudy with Light Rain 75 23.9 72 22.2 90 90 undefined N/A 30.01 1016 10 16 0.01 0.25
3:40 am 03:40 Cloudy with Nearby Thunderstorms 75 23.9 71 21.7 88 88 SSW 3 6 30.00 1016 10 16 0.01 0.25
3:53 am 03:53 Cloudy 75 23.9 72 22.2 90 90 Calm 30.01 1016 10 16 0.01 0.25
4:53 am 04:53 Cloudy 75 23.9 72 22.2 90 90 SSW 7 11 30.00 1016 10 16 0.00 0.00
5:38 am 05:38 Cloudy with Nearby Thunderstorms 76 24.4 73 22.8 91 91 WSW 3 6 30.00 1016 10 16 0.04 1.02
5:44 am 05:44 Cloudy with Nearby Thunderstorms 76 24.4 73 22.8 91 91 WSW 5 7 30.03 1017 10 16 0.05 1.27
5:48 am 05:48 Cloudy with Thunderstorms 75 24 73 23 94 94 SW 7 11 30.03 1017 10 16 0.05 1.27
5:53 am 05:53 Cloudy with Thunderstorms 76 24.4 73 22.8 91 91 WSW 7 11 30.03 1017 10 16 0.07 1.78
6:07 am 06:07 Cloudy with Nearby Thunderstorms 76 24.4 73 22.8 91 91 WSW 10 17 30.00 1016 10 16 0.11 2.79
6:19 am 06:19 Cloudy with Thunderstorms 76 24.4 73 22.8 91 91 WNW 8 13 30.03 1017 10 16 0.14 3.56
6:30 am 06:30 Cloudy with Thunderstorms 76 24.4 73 22.8 91 91 WNW 7 11 30.03 1017 10 16 0.16 4.06
6:53 am 06:53 Cloudy with Thunderstorms 76 24.4 73 22.8 91 91 WNW 8 13 30.05 1018 10 16 0.32 8.13
7:07 am 07:07 Cloudy with Nearby Thunderstorms 76 24.4 73 22.8 91 91 WSW 7 11 30.06 1018 10 16 0.02 0.51
7:19 am 07:19 Cloudy with Strong Thunderstorms 76 24.4 73 22.8 91 91 WSW 10 17 30.06 1018 10 16 0.13 3.30
7:23 am 07:23 Cloudy with Strong Thunderstorms 75 23.9 73 22.8 94 94 WSW 10 17 30.06 1018 10 16 0.20 5.08
7:32 am 07:32 Cloudy with Thunderstorms 75 23.9 72 22.2 90 90 WSW 9 15 30.06 1018 10 16 0.43 10.92
7:43 am 07:43 Cloudy with Nearby Thunderstorms 75 23.9 72 22.2 90 90 WSW 8 13 30.06 1018 10 16 0.50 12.70
7:48 am 07:48 Cloudy with Nearby Thunderstorms 75 24 72 22 89 89 WSW 12 19 30.06 1018 10 16 0.54 13.72
7:53 am 07:53 Cloudy with Nearby Thunderstorms 75 23.9 72 22.2 90 90 WSW 12 19 30.07 1018 10 16 0.64 16.26
7:58 am 07:58 Cloudy with Strong Thunderstorms 75 23.9 72 22.2 90 90 SSW 8 13 30.06 1018 10 16 0.11 2.79
8:15 am 08:15 Cloudy with Thunderstorms 75 23.9 72 22.2 90 90 SW 8 13 30.06 1018 10 16 0.18 4.57
8:27 am 08:27 Cloudy with Nearby Thunderstorms 75 23.9 72 22.2 90 90 SSW 10 17 30.06 1018 10 16 0.19 4.83
8:35 am 08:35 Cloudy with Nearby Thunderstorms 75 23.9 72 22.2 90 90 SW 9 15 30.06 1018 10 16 0.21 5.33
8:53 am 08:53 Cloudy with Strong Thunderstorms 74 23.3 72 22.2 94 94 WNW 10 17 30.09 1019 10 16 0.44 11.18
9:33 am 09:33 Cloudy with Light Rain 74 23.3 72 22.2 94 94 VRB 3 6 30.06 1018 10 16 0.68 17.27
9:38 am 09:38 Cloudy with Nearby Thunderstorms 74 23.3 72 22.2 94 94 NNW 6 9 30.06 1018 10 16 0.68 17.27
9:50 am 09:50 Cloudy with Nearby Thunderstorms 73 23 72 22 94 94 SE 7 11 30.06 1018 10 16 0.69 17.53
9:53 am 09:53 Cloudy with Light Rain 74 23.3 71 21.7 91 91 VRB 7 11 30.09 1019 10 16 0.69 17.53
10:43 am 10:43 Cloudy with Nearby Thunderstorms 74 23.3 72 22.2 94 94 S 3 6 30.09 1019 10 16 0.00 0.00
10:53 am 10:53 Cloudy 75 23.9 73 22.8 94 94 S 3 6 30.09 1019 10 16 0.00 0.00
11:31 am 11:31 Cloudy 75 23.9 73 22.8 94 94 SSE 3 6 30.09 1019 10 16 0.00 0.00
11:53 am 11:53 Cloudy 77 25 74 23.3 90 90 S 5 7 30.09 1019 10 16 0.00 0.00
12:23 pm 12:23 Cloudy 78 25.6 75 23.9 90 90 S 3 6 30.09 1019 10 16 0.00 0.00
12:43 pm 12:43 Cloudy 80 26.7 76 24.4 87 87 SSE 5 7 30.06 1018 10 16 0.00 0.00
12:53 pm 12:53 Cloudy 81 27.2 77 25 88 88 SSE 5 7 30.08 1019 10 16 0.00 0.00
1:20 pm 13:20 Cloudy 82 27.8 77 25 85 85 S 5 7 30.06 1018 10 16 0.00 0.00
1:53 pm 13:53 Cloudy 85 29.4 78 25.6 80 80 SW 5 7 30.06 1018 10 16 0.00 0.00
2:24 pm 14:24 Partly Cloudy 88 31.1 77 25 70 70 W 10 17 30.03 1017 10 16 0.00 0.00
2:53 pm 14:53 Mostly Sunny 90 32.2 78 25.6 68 68 WSW 7 11 30.04 1017 10 16 0.00 0.00
3:53 pm 15:53 Partly Cloudy 90 32.2 77 25 66 66 WSW 13 20 30.01 1016 10 16 0.00 0.00
4:53 pm 16:53 Mostly Sunny 88 31.1 78 25.6 73 73 SSW 8 13 30.00 1016 10 16 0.00 0.00
5:53 pm 17:53 Partly Cloudy 90 32.2 77 25 66 66 WSW 9 15 29.98 1015 10 16 0.00 0.00
6:53 pm 18:53 Sunny 88 31.1 77 25 70 70 SW 10 17 29.98 1015 10 16 0.00 0.00
7:53 pm 19:53 Sunny 86 30 78 25.6 77 77 SW 6 9 29.99 1016 10 16 0.00 0.00
8:53 pm 20:53 Clear 83 28.3 78 25.6 85 85 SW 3 6 30.02 1017 10 16 0.00 0.00
9:53 pm 21:53 Clear 81 27.2 78 25.6 91 91 Calm 30.03 1017 10 16 0.00 0.00
10:53 pm 22:53 Clear 81 27.2 78 25.6 91 91 SSW 3 6 30.04 1017 10 16 0.00 0.00
11:53 pm 23:53 Clear 80 26.7 77 25 90 90 SSW 3 6 30.05 1018 10 16 0.00 0.00

Powered by AerisWeather